Regional Weather Roundup
Issued by NWS

Home | Current Version | Previous Version | Text Only | Print | Product List | Glossary On
Versions: 1 2 3 4 5 6 7 8 9 10 11 12 13 14 15 16 17 18 19 20 21 22 23 24 25 26 27 28 29 30 31 32 33 34 35 36 37 38 39 40 41 42 43 44 45 46 47 48 49 50
000
ASUS43 KTOP 041408
RWRKS

WEATHER ROUNDUP FOR KANSAS
NATIONAL WEATHER SERVICE GOODLAND KS
800 AM CST WED MAR 04 2015

NOTE:  "FAIR" INDICATES FEW OR NO CLOUDS BELOW 12,000 FEET WITH NO
SIGNIFICANT WEATHER AND/OR OBSTRUCTIONS TO VISIBILITY.

KSZ001>006-013>018-027>032-041>047-041500-
NORTHWEST KANSAS

CITY           SKY/WX    TMP DP  RH WIND       PRES   REMARKS
GOODLAND       CLOUDY    15  11  83 N8        30.17R
HAYS           CLOUDY    18   7  62 N14       30.25S WCI   4
HILL CITY      CLOUDY    18  12  77 N9        30.27R
RUSSELL        CLOUDY    19  14  81 N13       30.24F WCI   6
$$

KSZ061>065-074>080-084>089-041500-
SOUTHWEST KANSAS

CITY           SKY/WX    TMP DP  RH WIND       PRES   REMARKS
DODGE CITY     CLOUDY    19  12  74 NE20      30.19R WCI   3
ELKHART          N/A     18  10  71 N12         N/A  WCI   5
GARDEN CITY    CLOUDY    17  13  84 NE17      30.19R WCI   1
GREAT BEND     CLOUDY    19  10  68 N17       30.25R WCI   4
LIBERAL        CLOUDY    19  12  73 N17       30.17R WCI   4
PRATT          FLURRIES  19  14  79 NE14      30.21R WCI   6
$$

KSZ066>073-081>083-090>101-041500-
SOUTHEAST KANSAS

CITY           SKY/WX    TMP DP  RH WIND       PRES   REMARKS
CHANUTE        LGT SNOW  20  16  84 NE16G23   30.23R FOG     WCI   6
COFFEYVILLE    LGT SNOW  23  17  78 N24       30.21R WCI   7
HUTCHINSON     CLOUDY    20  13  74 N8        30.25R
MEDICINE LODGE   N/A     20  16  84 N18       30.23R WCI   5
NEWTON         CLOUDY    18  10  73 N15G21    30.24R WCI   3
PARSONS        LGT SNOW  22  16  78 N12       30.21R WCI  10
WICHITA INTL   LGT SNOW  20  14  77 N21G28    30.23R WCI   4
WICHITA JABRA  FLURRIES  19  14  81 N16G25    30.22R WCI   4
WICHITA MCCONL FLURRIES  19  15  83 N20       30.23R WCI   4
WINFIELD       LGT SNOW  22  15  75 NE14      30.21R WCI   9
$$

KSZ007>012-019>026-033>040-048>060-102>105-041500-
NORTHEAST KANSAS

CITY           SKY/WX    TMP DP  RH WIND       PRES   REMARKS
CONCORDIA      MOSUNNY   18  14  84 NW5       30.29R
EMPORIA        SNOW      18  15  88 N14       30.25R VSB 1/2 WCI   4
LAWRENCE       LGT SNOW  19  11  70 N10       30.29R WCI   7
MANHATTAN      CLOUDY    21  13  71 NE10      30.29R WCI  10
MARYSVILLE     MOSUNNY   18  14  86 N3        30.29R
OLATHE IND     LGT SNOW  18  11  74 N15       30.26R VSB 3/4 WCI   4
OLATHE EXE     SNOW      18  12  77 N16       30.25R VSB 1/2 WCI   3
SALINA         CLOUDY    22  12  65 NE13      30.30R WCI  10
TOPEKA BILLARD CLOUDY    21  12  68 N12       30.29R WCI   9
TOPEKA FORBES  LGT SNOW  20  12  71 N13       30.27R WCI   7
$$



USA.gov is the U.S. government's official web portal to all federal, state and local government web resources and services.